• In Deutschland
  • Länderverzeichnis
  • Für 7 Tage
  • Wassertemperatur
  • Satellitenkarten
  • Wetterkarte
  • Widgets
  • user-avatar
    Anmelden

    Stündliche Wetter Kaiserslautern

    Heute, 20 Juli, Freitag

    Zeit Temperatur Niederschläge Wind Luftdruck Luftfeuchtigkeit
    00:00 +20°C° 0 mm 1 m/S 739 mmHg 60%
    01:00 +19°C° 0 mm 1 m/S 739 mmHg 61%
    02:00 +19°C° 0 mm 1 m/S 738 mmHg 63%
    03:00 +19°C° 0 mm 1 m/S 738 mmHg 65%
    04:00 +18°C° 0 mm 1 m/S 738 mmHg 66%
    05:00 +19°C° 0 mm 1 m/S 738 mmHg 66%
    06:00 +20°C° 0 mm 1 m/S 738 mmHg 66%
    07:00 +21°C° 0 mm 1 m/S 738 mmHg 66%
    08:00 +23°C° 0 mm 1 m/S 738 mmHg 61%
    09:00 +25°C° 0 mm 1 m/S 738 mmHg 56%
    10:00 +27°C° 0 mm 1 m/S 738 mmHg 50%
    11:00 +28°C° 0 mm 1 m/S 738 mmHg 47%
    12:00 +29°C° 0 mm 1 m/S 738 mmHg 43%
    13:00 +30°C° 0 mm 1 m/S 738 mmHg 40%
    14:00 +30°C° 0 mm 1 m/S 737 mmHg 40%
    15:00 +30°C° 0 mm 1 m/S 737 mmHg 41%
    16:00 +28°C° 0 mm 0 m/S 736 mmHg 41%
    17:00 +27°C° 0 mm 0 m/S 736 mmHg 46%
    18:00 +26°C° 0 mm 0 m/S 736 mmHg 51%
    19:00 +25°C° 0 mm 0 m/S 735 mmHg 55%
    20:00 +23°C° 0,4 mm 0 m/S 735 mmHg 61%
    21:00 +24°C° 0,4 mm 1 m/S 736 mmHg 66%
    22:00 +22°C° 0,4 mm 1 m/S 736 mmHg 71%
    23:00 +21°C° 0,5 mm 1 m/S 735 mmHg 74%

    Morgen, 21 Juli, Samstag

    Zeit Temperatur Niederschläge Wind Luftdruck Luftfeuchtigkeit
    00:00 +21°C° 0,5 mm 1 m/S 735 mmHg 76%
    01:00 +20°C° 0,5 mm 1 m/S 735 mmHg 79%
    02:00 +20°C° 0,3 mm 1 m/S 735 mmHg 81%
    03:00 +20°C° 0,3 mm 1 m/S 735 mmHg 83%
    04:00 +19°C° 0,3 mm 1 m/S 735 mmHg 86%
    05:00 +20°C° 0,1 mm 1 m/S 735 mmHg 85%
    06:00 +20°C° 0,1 mm 1 m/S 735 mmHg 84%
    07:00 +21°C° 0,1 mm 1 m/S 735 mmHg 83%
    08:00 +23°C° 0,4 mm 1 m/S 736 mmHg 78%
    09:00 +24°C° 0,4 mm 2 m/S 736 mmHg 73%
    10:00 +25°C° 0,4 mm 2 m/S 736 mmHg 68%
    11:00 +26°C° 0,7 mm 2 m/S 736 mmHg 66%
    12:00 +26°C° 0,7 mm 2 m/S 736 mmHg 64%
    13:00 +27°C° 0,7 mm 3 m/S 736 mmHg 62%
    14:00 +27°C° 0,7 mm 3 m/S 736 mmHg 64%
    15:00 +27°C° 0,7 mm 3 m/S 736 mmHg 65%
    16:00 +26°C° 0,7 mm 3 m/S 736 mmHg 66%
    17:00 +25°C° 0,7 mm 2 m/S 736 mmHg 71%
    18:00 +24°C° 0,7 mm 2 m/S 736 mmHg 77%
    19:00 +23°C° 0,7 mm 2 m/S 736 mmHg 82%
    20:00 +21°C° 0,2 mm 2 m/S 736 mmHg 84%
    21:00 +20°C° 0,2 mm 2 m/S 736 mmHg 86%
    22:00 +19°C° 0,2 mm 2 m/S 736 mmHg 88%
    23:00 +19°C° 0,1 mm 2 m/S 736 mmHg 89%

    übermorgen, 22 Juli, Sonntag

    Zeit Temperatur Niederschläge Wind Luftdruck Luftfeuchtigkeit
    00:00 +20°C° 0,1 mm 1 m/S 736 mmHg 90%
    01:00 +19°C° 0,1 mm 1 m/S 736 mmHg 91%
    02:00 +19°C° 0 mm 1 m/S 736 mmHg 92%
    03:00 +19°C° 0 mm 1 m/S 736 mmHg 92%
    04:00 +18°C° 0 mm 1 m/S 736 mmHg 92%
    05:00 +19°C° 0,1 mm 1 m/S 736 mmHg 91%
    06:00 +20°C° 0,1 mm 1 m/S 736 mmHg 89%
    07:00 +20°C° 0,1 mm 1 m/S 736 mmHg 88%
    08:00 +22°C° 0,1 mm 1 m/S 736 mmHg 81%
    09:00 +23°C° 0,1 mm 2 m/S 737 mmHg 75%
    10:00 +25°C° 0,1 mm 2 m/S 737 mmHg 68%
    11:00 +26°C° 1 mm 2 m/S 737 mmHg 67%
    12:00 +27°C° 1 mm 2 m/S 736 mmHg 65%
    13:00 +27°C° 1 mm 2 m/S 736 mmHg 64%
    14:00 +27°C° 0,7 mm 2 m/S 736 mmHg 64%
    15:00 +27°C° 0,7 mm 3 m/S 736 mmHg 63%
    16:00 +28°C° 0,7 mm 3 m/S 736 mmHg 63%
    17:00 +27°C° 0,4 mm 3 m/S 736 mmHg 67%
    18:00 +26°C° 0,4 mm 2 m/S 736 mmHg 71%
    19:00 +25°C° 0,4 mm 2 m/S 736 mmHg 74%
    20:00 +24°C° 0,3 mm 2 m/S 737 mmHg 78%
    21:00 +21°C° 0,3 mm 2 m/S 737 mmHg 81%
    22:00 +21°C° 0,3 mm 1 m/S 737 mmHg 85%
    23:00 +20°C° 0,1 mm 1 m/S 737 mmHg 85%

    23 Juli, Montag

    Zeit Temperatur Niederschläge Wind Luftdruck Luftfeuchtigkeit
    00:00 +20°C° 0,1 mm 1 m/S 737 mmHg 86%
    01:00 +19°C° 0,1 mm 1 m/S 738 mmHg 87%
    02:00 +19°C° 0 mm 1 m/S 738 mmHg 88%
    03:00 +19°C° 0 mm 1 m/S 738 mmHg 89%
    04:00 +18°C° 0 mm 1 m/S 738 mmHg 90%
    05:00 +19°C° 0 mm 1 m/S 738 mmHg 88%
    06:00 +20°C° 0 mm 1 m/S 738 mmHg 86%
    07:00 +21°C° 0 mm 1 m/S 739 mmHg 84%
    08:00 +21°C° 0 mm 2 m/S 739 mmHg 76%
    09:00 +24°C° 0 mm 2 m/S 739 mmHg 69%
    10:00 +26°C° 0 mm 2 m/S 739 mmHg 62%
    11:00 +27°C° 0,2 mm 2 m/S 739 mmHg 58%
    12:00 +28°C° 0,2 mm 2 m/S 739 mmHg 54%
    13:00 +29°C° 0,2 mm 2 m/S 738 mmHg 50%
    14:00 +29°C° 0,1 mm 2 m/S 738 mmHg 49%
    15:00 +29°C° 0,1 mm 2 m/S 738 mmHg 48%
    16:00 +29°C° 0,1 mm 2 m/S 738 mmHg 46%
    17:00 +28°C° 0 mm 2 m/S 738 mmHg 51%
    18:00 +27°C° 0 mm 1 m/S 738 mmHg 56%
    19:00 +26°C° 0 mm 1 m/S 738 mmHg 60%
    20:00 +25°C° 0 mm 1 m/S 738 mmHg 62%
    21:00 +23°C° 0 mm 1 m/S 738 mmHg 65%
    22:00 +21°C° 0 mm 1 m/S 738 mmHg 67%
    23:00 +21°C° 0 mm 1 m/S 738 mmHg 68%

    24 Juli, Dienstag

    Zeit Temperatur Niederschläge Wind Luftdruck Luftfeuchtigkeit
    00:00 +20°C° 0 mm 1 m/S 738 mmHg 68%
    01:00 +20°C° 0 mm 1 m/S 737 mmHg 69%
    02:00 +19°C° 0 mm 1 m/S 737 mmHg 70%
    03:00 +19°C° 0 mm 1 m/S 737 mmHg 72%
    04:00 +19°C° 0 mm 1 m/S 737 mmHg 74%
    05:00 +20°C° 0 mm 1 m/S 737 mmHg 73%
    06:00 +21°C° 0 mm 1 m/S 737 mmHg 72%
    07:00 +22°C° 0 mm 1 m/S 737 mmHg 72%
    08:00 +24°C° 0 mm 1 m/S 737 mmHg 66%
    09:00 +26°C° 0 mm 1 m/S 737 mmHg 60%
    10:00 +28°C° 0 mm 1 m/S 737 mmHg 54%
    11:00 +29°C° 0 mm 1 m/S 737 mmHg 50%
    12:00 +30°C° 0 mm 1 m/S 737 mmHg 46%
    13:00 +31°C° 0 mm 1 m/S 736 mmHg 43%
    14:00 +31°C° 0 mm 1 m/S 736 mmHg 42%
    15:00 +31°C° 0 mm 1 m/S 736 mmHg 42%
    16:00 +31°C° 0 mm 1 m/S 736 mmHg 42%
    17:00 +30°C° 0 mm 1 m/S 736 mmHg 47%
    18:00 +29°C° 0 mm 1 m/S 735 mmHg 52%
    19:00 +28°C° 0 mm 1 m/S 735 mmHg 57%
    20:00 +26°C° 0 mm 1 m/S 736 mmHg 59%
    21:00 +25°C° 0 mm 1 m/S 736 mmHg 62%
    22:00 +23°C° 0 mm 1 m/S 736 mmHg 64%
    23:00 +23°C° 0 mm 1 m/S 736 mmHg 66%

    25 Juli, Mittwoch

    Zeit Temperatur Niederschläge Wind Luftdruck Luftfeuchtigkeit
    00:00 +22°C° 0 mm 1 m/S 736 mmHg 68%
    01:00 +22°C° 0 mm 1 m/S 736 mmHg 69%
    02:00 +20°C° 0,1 mm 0 m/S 736 mmHg 72%
    03:00 +19°C° 0,1 mm 0 m/S 736 mmHg 75%
    04:00 +19°C° 0,1 mm 0 m/S 736 mmHg 77%
    05:00 +19°C° 0,4 mm 0 m/S 737 mmHg 78%
    06:00 +20°C° 0,4 mm 0 m/S 737 mmHg 78%
    07:00 +20°C° 0,4 mm 0 m/S 737 mmHg 78%
    08:00 +21°C° 0,3 mm 0 m/S 737 mmHg 76%
    09:00 +24°C° 0,3 mm 1 m/S 737 mmHg 75%
    10:00 +25°C° 0,3 mm 1 m/S 737 mmHg 73%
    11:00 +27°C° 0,6 mm 1 m/S 737 mmHg 67%
    12:00 +28°C° 0,6 mm 1 m/S 737 mmHg 60%
    13:00 +29°C° 0,6 mm 1 m/S 738 mmHg 54%
    14:00 +29°C° 0,4 mm 1 m/S 738 mmHg 54%
    15:00 +29°C° 0,4 mm 2 m/S 738 mmHg 55%
    16:00 +30°C° 0,4 mm 2 m/S 737 mmHg 55%
    17:00 +28°C° 0,5 mm 2 m/S 738 mmHg 61%
    18:00 +27°C° 0,5 mm 2 m/S 738 mmHg 67%
    19:00 +26°C° 0,5 mm 2 m/S 738 mmHg 73%
    20:00 +25°C° 0,1 mm 2 m/S 738 mmHg 76%
    21:00 +23°C° 0,1 mm 2 m/S 738 mmHg 80%
    22:00 +21°C° 0,1 mm 2 m/S 738 mmHg 84%
    23:00 +20°C° 0 mm 2 m/S 739 mmHg 86%
    Mehr zeigen